Location: Mauries
(43.6188°N, 0.3322°W)
Time: 18:04:33
(UTC+00:00)

Cosmos 1943 Rocket - Visible Passes

Search period start: 11 April 2026 00:00
Search period end: 21 April 2026 00:00
Orbit: 809 x 844 km, 71.0° (Epoch: 11 April)

Date Brightness Start Highest point End Pass type
(mag) Time Alt. Az. Time Alt. Az. Time Alt. Az.
11 Apr 3.3 20:05:44 10° N 20:10:41 29° NE 20:12:58 22° E visible
11 Apr 2.8 21:49:11 10° NW 21:54:29 46° WSW 21:54:29 46° WSW visible
12 Apr 3.4 19:46:13 10° N 19:50:58 26° NE 19:54:05 17° E visible
12 Apr 2.6 21:29:29 10° NNW 21:34:59 53° WSW 21:35:36 51° SW visible
13 Apr 3.5 19:26:43 10° N 19:31:13 24° NE 19:35:15 12° E visible
13 Apr 2.5 21:09:48 10° NNW 21:15:23 61° WSW 21:16:46 47° SSW visible
14 Apr 3.7 19:07:13 10° N 19:11:29 21° NE 19:15:43 10° E visible
14 Apr 2.3 20:50:08 10° NNW 20:55:47 70° WSW 20:57:58 38° S visible
15 Apr 2.2 20:30:28 10° NNW 20:36:10 80° WSW 20:39:14 28° SSE visible
15 Apr 4.7 22:17:37 10° W 22:18:53 11° W 22:20:08 10° WSW visible
16 Apr 2.2 20:10:49 10° NNW 20:16:32 90° NE 20:20:32 20° SSE visible
16 Apr 4.6 21:56:59 10° WNW 21:59:21 13° W 22:01:44 10° WSW visible
17 Apr 2.2 19:51:12 10° NNW 19:56:54 80° ENE 20:01:55 13° SSE visible
17 Apr 4.6 21:36:46 10° WNW 21:39:51 15° W 21:42:53 10° SW visible
18 Apr 2.2 19:31:34 10° NNW 19:37:15 70° ENE 19:42:52 10° SSE visible
18 Apr 4.5 21:16:43 10° WNW 21:20:19 17° W 21:23:52 10° SW visible
19 Apr 2.3 19:11:58 10° NNW 19:17:36 62° ENE 19:23:09 10° SE visible
19 Apr 4.4 20:56:46 10° NW 21:00:46 20° W 21:04:44 10° SW visible
20 Apr 4.2 20:36:54 10° NW 20:41:14 23° W 20:45:32 10° SSW visible
